Currently 79°F in Pinon Hills, California, USA
79°F
82°F / 78°F
6 mph W
0.00"
Monday, August 3, 2020 5:13 AM PDT

Pinon Hills, California Climate Summary
Typical September Day

Normal High:    84.4°F (29.1°C)
Normal Low:    60.2°F (15.7°C)
Average:    71.9°F (22.2°C)

Hour    Temperature    Wind Speed    Humidity
12:00 AM    66°F (19°C)    2 mph    39%
1:00 AM    65°F (18°C)    2 mph    40%
2:00 AM    64°F (18°C)    2 mph    41%
3:00 AM    64°F (18°C)    2 mph    41%
4:00 AM    63°F (17°C)    2 mph    42%
5:00 AM    63°F (17°C)    2 mph    42%
6:00 AM    63°F (17°C)    2 mph    43%
7:00 AM    63°F (17°C)    2 mph    42%
8:00 AM    69°F (21°C)    1 mph    37%
9:00 AM    73°F (23°C)    2 mph    33%
10:00 AM    76°F (24°C)    2 mph    29%
11:00 AM    78°F (26°C)    3 mph    26%
12:00 PM    80°F (27°C)    3 mph    23%
1:00 PM    82°F (28°C)    4 mph    21%
2:00 PM    83°F (28°C)    4 mph    20%
3:00 PM    83°F (28°C)    4 mph    20%
4:00 PM    83°F (28°C)    4 mph    20%
5:00 PM    82°F (28°C)    4 mph    21%
6:00 PM    79°F (26°C)    4 mph    24%
7:00 PM    75°F (24°C)    3 mph    29%
8:00 PM    71°F (22°C)    3 mph    33%
9:00 PM    70°F (21°C)    3 mph    35%
10:00 PM    68°F (20°C)    2 mph    37%
11:00 PM    67°F (19°C)    2 mph    39%
 

The Pinon Hills, California weather pages are a service of WeatherCurrents.
Copyright ©2020  WeatherCurrents. All rights reserved. - Submit questions and comments - Privacy Policy